Wetbulb
52.71 53.07 51.29 51.82 51.75 67.26 67.32 67.02 66.14 66.21 66.70 65.56 65.15 64.62 63.43 63.71 65.13 65.64 65.39 65.46 64.87 63.97 62.71 62.47 61.93 62.51 62.42 62.51 60.96 60.92 60.60 60.23
53.40 51.74 51.04 50.71 51.27 66.38 67.14 66.06 65.44 65.11 65.26 63.91 64.42 63.35 62.80 61.80 63.05 64.75 65.44 64.99 64.85 64.20 63.35 61.89 61.68 61.79 61.90 61.96 61.08 59.77 59.05 60.18
52.79 51.85 50.92 51.37 53.25 63.01 66.69 66.09 65.19 64.84 64.94 65.17 63.62 64.52 63.41 64.07 62.35 62.75 63.57 64.40 64.04 63.46 62.50 61.98 61.78 62.09 61.58 61.62 61.10 60.13 59.70 60.48
52.16 53.52 52.85 53.36 54.06 55.42 65.34 66.34 65.28 65.13 64.62 64.42 62.64 62.65 63.12 62.61 62.85 62.71 62.06 62.46 63.01 62.57 61.75 61.87 62.09 62.81 62.04 61.95 61.50 60.26 58.38 59.90
53.46 53.11 53.42 54.21 55.08 56.69 56.74 65.45 65.86 65.09 64.44 63.72 62.36 61.50 60.90 62.12 62.42 62.34 61.76 62.43 61.81 62.40 61.52 61.11 62.09 62.20 61.67 61.74 61.83 60.62 59.74 58.08
50.87 51.08 52.21 53.11 53.66 54.72 56.49 57.58 61.86 65.50 64.26 63.89 62.56 61.54 61.82 61.32 62.07 62.62 61.25 60.69 61.46 61.82 62.54 61.47 61.22 61.11 61.26 61.24 61.12 60.44 60.05 59.09
48.57 49.52 49.64 48.77 49.83 51.26 53.11 54.37 56.55 62.70 64.02 63.37 62.73 61.73 61.50 60.59 60.77 59.92 59.47 59.94 59.72 60.42 60.28 60.74 61.10 60.72 60.50 60.53 60.90 60.43 59.63 59.71
45.39 44.96 44.60 45.05 45.74 47.68 49.59 49.95 52.00 54.33 63.52 63.21 62.97 62.53 61.95 61.23 60.61 60.04 59.51 59.19 58.98 58.86 59.07 58.74 58.85 60.10 60.12 60.34 60.26 60.12 59.88 58.97
42.51 42.33 41.99 42.30 44.22 44.75 45.21 46.09 48.05 51.23 61.41 63.17 63.21 63.12 62.41 61.94 61.05 60.27 59.56 58.71 58.48 58.59 58.40 58.09 59.22 59.76 59.78 59.97 60.02 59.74 59.89 59.26
40.17 40.10 40.36 41.11 42.29 42.90 43.42 44.25 45.71 50.07 54.73 63.41 62.49 62.10 63.27 60.77 59.91 60.29 59.43 58.92 58.04 58.48 58.61 58.04 59.03 59.29 59.30 59.58 59.69 59.27 59.34 59.30
38.67 38.34 38.74 40.94 41.13 41.57 42.44 44.33 47.72 52.90 61.03 60.57 60.94 60.94 61.60 61.03 60.88 59.75 58.69 58.21 58.58 58.31 58.20 58.10 58.39 58.57 59.00 58.34 58.29 59.34 58.97 59.25
38.41 38.29 38.84 39.56 40.20 40.08 40.47 42.28 45.07 52.99 58.39 58.43 58.48 59.61 60.58 60.58 60.76 59.47 58.49 58.15 58.62 58.47 58.07 57.46 57.28 57.32 57.32 58.10 57.28 57.58 57.74 57.90
37.44 37.01 37.92 38.03 38.13 38.74 38.81 40.24 42.08 45.31 50.42 58.29 58.47 58.96 59.89 60.08 60.14 59.80 58.79 58.09 58.67 58.47 57.73 57.22 56.94 56.80 56.88 56.74 56.70 56.98 56.84 56.62
36.49 36.29 35.90 36.50 37.35 37.66 38.01 38.94 40.11 42.52 45.71 58.49 58.41 58.59 59.09 59.72 60.04 59.98 59.59 58.65 58.31 58.75 57.63 56.90 56.72 56.80 56.60 56.82 56.70 56.48 56.60 56.74
34.71 34.39 34.87 35.65 36.07 36.97 37.14 37.68 39.11 39.95 42.54 45.31 48.89 57.66 58.25 59.34 59.85 60.06 60.01 59.26 58.03 58.14 57.54 57.06 56.63 56.32 56.40 56.58 56.18 55.98 55.94 56.26
33.72 33.45 33.66 34.14 34.80 34.96 36.61 36.98 37.18 38.70 39.26 39.68 42.41 46.61 52.11 53.85 54.86 59.21 59.75 59.37 58.97 58.27 57.69 57.15 56.04 54.35 50.12 55.20 55.58 55.22 54.41 54.26
32.66 32.62 33.18 33.21 33.43 33.82 33.93 35.28 35.98 36.50 37.13 38.25 39.42 41.11 42.00 43.63 45.28 45.96 48.67 47.36 46.29 44.80 44.34 43.59 41.43 39.17 36.55 37.98 46.53 55.18 55.05 54.57
31.79 31.72 32.58 32.98 32.80 33.27 32.71 32.97 35.34 35.29 34.63 35.93 37.93 38.68 38.78 39.32 39.06 38.82 38.83 39.68 39.16 37.72 37.27 37.06 36.61 37.15 36.76 37.89 38.30 48.46 46.18 43.87
31.52 31.60 32.46 32.98 33.72 33.04 33.11 33.21 33.02 33.61 33.66 33.56 34.79 37.19 37.16 37.15 37.21 37.27 35.05 35.45 35.16 34.28 34.17 35.09 36.02 37.52 36.89 37.23 36.57 36.86 35.07 34.57
MSLP
999.47 999.72 999.87 999.89 1000.27 1001.44 1002.28 1003.18 1004.13 1004.83 1005.55 1006.14 1006.87 1007.65 1008.18 1008.58 1009.07 1009.27 1009.71 1010.27 1010.77 1011.33 1011.96 1012.40 1012.71 1013.25 1014.00 1014.66 1015.01 1015.49 1015.80 1016.46
998.56 998.90 999.10 999.48 999.94 1000.97 1001.79 1002.85 1003.96 1004.75 1005.47 1005.78 1006.47 1007.20 1007.91 1008.36 1008.75 1008.91 1009.27 1009.73 1010.31 1010.86 1011.50 1012.05 1012.49 1012.89 1013.46 1013.99 1014.61 1015.10 1015.77 1016.33
998.12 998.65 998.93 999.49 999.79 1000.49 1001.37 1002.02 1003.03 1003.89 1004.55 1005.08 1005.37 1006.26 1007.53 1007.95 1008.47 1008.82 1008.87 1009.25 1009.75 1010.42 1010.94 1011.55 1012.07 1012.51 1012.96 1013.47 1013.85 1014.61 1015.25 1015.69
998.65 999.28 999.85 1000.16 1000.65 1001.08 1001.41 1001.37 1002.19 1002.93 1003.63 1004.53 1005.32 1006.17 1007.05 1007.77 1008.07 1008.37 1008.62 1008.81 1009.21 1009.76 1010.33 1010.99 1011.56 1011.88 1012.21 1012.76 1013.15 1013.64 1014.25 1015.21
999.72 1000.32 1000.84 1001.41 1001.93 1001.71 1002.19 1002.14 1002.59 1002.82 1003.18 1003.77 1004.23 1005.00 1005.99 1006.68 1007.47 1008.02 1008.31 1008.57 1008.85 1009.17 1009.85 1010.57 1010.97 1011.35 1011.63 1012.07 1012.58 1012.97 1013.41 1014.12
1001.41 1001.75 1002.09 1002.53 1002.63 1002.85 1002.50 1003.09 1003.26 1002.29 1002.77 1003.13 1003.79 1004.55 1005.13 1005.97 1006.94 1007.61 1007.90 1008.25 1008.49 1008.95 1009.61 1010.22 1010.65 1010.91 1011.23 1011.58 1012.00 1012.27 1012.39 1013.59
1003.04 1003.26 1003.13 1003.57 1003.67 1003.57 1003.50 1003.23 1002.98 1003.18 1002.32 1002.51 1003.09 1003.63 1004.51 1005.49 1006.26 1006.99 1007.53 1008.05 1008.45 1008.80 1009.35 1009.87 1010.22 1010.48 1010.75 1011.10 1011.37 1011.20 1012.18 1012.88
1004.77 1005.07 1005.27 1005.35 1005.24 1004.92 1004.34 1004.29 1003.48 1003.60 1002.95 1002.21 1002.52 1002.91 1003.65 1004.34 1005.19 1006.06 1007.07 1007.71 1008.24 1008.76 1009.22 1009.70 1009.93 1009.94 1010.24 1010.54 1010.39 1011.17 1011.49 1012.37
1006.94 1007.43 1007.37 1007.12 1006.66 1006.07 1005.51 1004.85 1004.11 1003.79 1003.01 1002.16 1002.09 1002.65 1003.25 1003.67 1004.41 1005.42 1006.32 1007.19 1007.72 1008.38 1008.88 1009.41 1009.53 1009.53 1009.81 1010.09 1010.30 1010.76 1011.39 1012.06
1008.83 1008.78 1008.61 1008.25 1007.74 1007.32 1006.75 1005.51 1004.31 1003.45 1002.61 1001.93 1001.60 1002.05 1002.58 1003.07 1003.86 1004.84 1005.79 1006.67 1007.35 1007.86 1008.52 1008.99 1009.19 1009.11 1009.43 1009.77 1010.11 1010.33 1010.81 1011.66
1009.47 1009.97 1010.08 1009.77 1009.31 1008.70 1007.55 1006.22 1003.64 1001.78 1001.48 1001.45 1001.31 1001.84 1002.09 1002.53 1003.25 1004.30 1005.33 1006.18 1006.85 1007.69 1008.21 1008.58 1008.89 1008.85 1009.22 1009.58 1009.99 1010.16 1010.47 1011.17
1011.47 1011.53 1011.23 1010.84 1010.23 1009.43 1008.20 1006.37 1004.21 1002.82 1001.93 1001.64 1001.76 1001.93 1002.12 1002.49 1002.96 1004.09 1005.01 1005.79 1006.63 1007.44 1007.87 1008.27 1008.63 1008.65 1009.00 1009.48 1009.91 1010.18 1010.35 1011.01
1012.61 1012.56 1012.18 1011.47 1010.81 1009.56 1008.40 1007.12 1005.58 1004.61 1003.68 1002.83 1002.49 1002.15 1002.14 1002.38 1002.89 1003.91 1004.76 1005.60 1006.43 1007.19 1007.67 1008.03 1008.46 1008.53 1008.75 1009.50 1009.78 1010.31 1010.52 1011.07
1013.95 1013.35 1012.91 1012.21 1011.28 1010.32 1009.38 1008.05 1007.09 1006.05 1004.90 1003.48 1003.23 1002.42 1002.64 1002.56 1003.00 1003.57 1004.60 1005.51 1006.30 1006.93 1007.39 1007.83 1008.15 1008.36 1008.49 1009.30 1009.78 1010.04 1010.73 1011.10
1014.73 1014.43 1013.98 1013.23 1012.52 1011.66 1010.55 1009.77 1008.57 1007.59 1006.43 1005.39 1004.66 1003.48 1003.31 1003.31 1002.91 1003.36 1004.41 1005.44 1006.03 1006.71 1007.22 1007.71 1008.08 1008.41 1008.48 1008.99 1009.63 1009.99 1010.49 1010.98
1015.80 1015.52 1015.11 1014.34 1013.61 1012.90 1011.96 1010.84 1009.95 1009.07 1008.15 1007.27 1006.66 1005.29 1004.35 1003.67 1003.86 1003.83 1004.70 1005.52 1006.01 1006.63 1007.09 1007.83 1008.24 1008.56 1009.07 1008.99 1009.37 1009.87 1010.41 1010.92
1016.88 1016.56 1016.15 1015.62 1015.11 1014.42 1013.45 1012.41 1011.51 1010.62 1009.83 1008.91 1008.54 1007.25 1005.97 1005.77 1005.91 1005.67 1006.34 1006.96 1007.35 1007.77 1008.37 1009.05 1009.59 1010.03 1010.27 1009.93 1009.53 1009.67 1010.23 1010.51
1017.65 1017.60 1017.34 1016.90 1016.28 1015.76 1014.89 1014.07 1013.03 1011.85 1011.23 1010.93 1010.34 1009.27 1008.05 1007.65 1007.49 1007.56 1008.21 1008.76 1009.30 1009.52 1010.13 1010.55 1011.10 1010.93 1010.55 1010.38 1010.09 1010.21 1010.67 1011.41
1018.24 1018.34 1018.21 1017.86 1017.15 1016.45 1016.14 1015.41 1014.55 1013.62 1012.48 1012.55 1012.03 1011.46 1009.84 1009.25 1009.10 1009.55 1009.42 1010.17 1011.00 1011.25 1011.65 1011.84 1012.05 1011.71 1011.08 1010.84 1010.91 1011.47 1012.13 1012.85
Wind_Speed
14 16 11 12 9 21 19 14 15 14 10 7 7 6 4 5 7 8 11 9 10 8 5 6 6 7 6 7 10 6 7 8
16 11 12 10 7 20 19 17 14 11 10 7 9 8 6 3 4 9 11 10 11 10 7 7 6 8 9 11 7 10 6 6
15 8 8 5 5 16 18 17 17 13 11 8 5 8 3 5 3 5 8 10 11 10 9 9 9 8 10 11 12 7 4 8
8 9 9 8 8 8 10 19 20 16 14 9 5 5 4 4 7 5 5 8 10 9 10 9 9 9 10 12 13 15 10 9
14 14 14 15 14 13 9 10 13 11 15 13 17 12 10 8 8 7 5 8 8 11 10 10 10 8 10 10 10 11 9 12
17 16 14 13 14 12 13 9 6 14 16 15 13 11 9 5 8 10 8 5 9 10 11 10 10 9 9 12 13 12 11 12
17 17 18 18 17 16 14 15 12 7 16 17 17 15 13 9 10 7 6 6 5 7 6 7 8 10 10 10 11 15 12 11
19 21 19 19 19 19 17 16 17 13 13 16 16 16 14 16 13 9 9 7 4 8 8 8 8 8 9 9 12 10 12 12
18 17 16 17 19 18 20 19 18 13 12 15 14 13 9 10 12 9 9 8 7 9 8 9 9 10 10 9 9 9 12 12
17 17 17 18 18 19 20 22 20 15 16 12 10 8 13 9 12 12 10 9 8 10 9 9 8 8 9 9 7 12 9 10
19 17 16 15 15 16 18 19 22 13 10 7 6 6 6 10 11 12 12 9 10 10 9 9 8 7 8 8 5 10 14 11
16 15 15 15 13 14 16 17 18 14 2 3 2 2 6 11 11 11 11 11 11 11 10 9 9 9 7 8 7 8 12 11
15 15 15 15 14 15 17 17 17 16 15 4 5 1 5 11 12 12 12 11 10 10 10 10 10 8 9 7 8 6 9 11
14 15 16 16 16 16 16 18 18 17 18 4 2 5 3 8 11 11 12 11 12 10 9 9 9 9 10 9 9 9 8 9
15 15 16 17 17 16 15 15 17 17 17 15 14 3 4 6 9 10 11 10 11 9 10 9 10 10 10 10 9 9 9 8
15 15 15 16 17 17 16 16 16 17 17 17 15 13 10 9 10 6 9 8 9 10 10 7 5 4 1 9 10 9 9 8
15 16 16 15 16 16 16 15 16 16 17 17 16 14 13 13 12 14 12 10 11 13 11 9 9 6 8 5 3 8 9 9
11 11 12 13 14 14 15 15 14 15 18 17 16 14 13 14 14 15 15 14 13 13 13 11 10 6 7 3 3 6 8 8
6 8 9 10 12 13 12 14 15 15 16 17 17 14 13 14 15 13 17 13 13 13 13 12 10 10 16 16 17 12 12 12
Wind_Direction
226 227 206 207 193 175 173 171 173 171 171 142 156 166 177 161 176 179 173 175 176 171 172 173 162 159 166 174 170 173 174 180
219 209 207 198 179 170 171 161 169 162 175 165 161 168 179 159 160 169 174 175 176 181 182 176 177 179 183 176 164 167 162 168
214 179 181 174 167 168 168 167 164 171 179 183 156 144 153 174 165 183 179 173 177 182 176 183 182 177 176 177 171 168 163 173
71 71 66 58 54 95 180 171 173 176 176 161 116 100 107 162 206 218 186 175 180 176 169 174 178 184 187 184 179 179 174 180
62 50 40 36 28 19 33 186 175 173 167 166 167 175 180 200 199 206 200 196 178 173 166 176 184 188 190 188 185 182 175 178
46 40 35 25 20 18 1 30 245 178 173 175 172 176 186 157 180 195 188 173 158 159 166 178 185 194 196 192 186 182 175 180
36 28 24 12 3 1 0 351 346 254 183 177 180 179 175 167 181 185 166 155 154 151 162 181 193 195 200 201 190 181 174 174
30 23 14 2 357 349 343 344 322 344 217 182 182 183 176 178 175 178 162 164 167 176 174 196 209 197 195 194 181 176 170 172
33 20 9 356 347 345 335 328 316 311 267 193 183 184 180 178 177 164 168 177 169 169 178 199 200 198 190 189 188 179 172 172
28 16 4 352 348 341 329 318 305 269 259 207 183 168 187 165 161 156 160 162 162 166 179 181 183 172 173 175 191 182 172 163
22 12 360 352 346 333 326 316 304 229 200 200 160 178 187 169 149 147 153 150 153 169 178 170 172 154 165 152 161 173 182 178
16 7 360 352 346 342 337 337 352 4 317 221 152 193 176 171 142 145 150 151 161 176 177 172 180 165 142 163 150 155 153 154
17 7 358 360 353 355 356 353 1 357 336 276 207 154 167 156 145 146 149 156 164 178 172 172 182 170 152 162 156 170 163 163
11 8 8 0 1 359 1 5 6 359 350 273 214 84 115 149 146 144 147 154 168 171 169 177 179 182 163 173 179 169 179 184
17 9 1 4 0 359 9 11 9 6 4 8 9 344 108 175 137 141 142 156 157 166 169 177 184 187 178 174 179 178 182 190
20 12 6 3 2 1 0 13 18 13 13 14 6 4 29 52 42 109 132 147 160 169 167 180 175 145 90 184 176 181 182 189
20 13 7 9 4 358 360 4 18 22 15 18 4 15 33 38 45 53 55 58 61 66 65 76 72 66 1 353 188 180 184 190
30 19 11 8 7 3 5 2 2 28 24 13 9 12 36 46 52 57 54 55 56 63 59 55 41 18 3 26 69 72 77 61
44 33 16 11 9 17 12 12 13 13 35 22 6 6 36 49 58 58 66 57 56 54 51 41 32 35 49 73 83 81 75 63